sat.trackr.live / text

‹ back to catalog

POEM-2

NORAD 56308 · 2023-057A

PAYLOAD ACTIVE UNKNOWN

§ Identity

Operator
Country
IND
Launch date
2023-04-22
Launch site
SRILR
Launch vehicle
Mass (kg)
RCS (m²)

External: N2YO · Heavens-Above · Gunter

§ Orbital elements

Epoch: 2026-05-25T04:21:58.485024Z

Period
96.33 min
Inclination
9.8886°
Eccentricity
0.0020998
Mean motion
14.94903859 rev/d
Perigee alt
568.1 km
Apogee alt
597.3 km
Semi-major
6,960.8 km
B*
1.1155e-4
RAAN
69.1278°
Arg perigee
325.1358°
Mean anomaly
34.7479°
Rev number
16,881

§ Raw data

POEM-21 56308U 23057A   26145.18192691  .00001956  00000+0  11155-3 0  99902 56308   9.8886  69.1278 0020998 325.1358  34.7479 14.94903859168811

JSON: /api/v1/satellites/56308 · /tle

For live sub-satellite position, see the globe view (requires WebGL).

§ Visibility from observer

Set your observer location to see the next 7 days of passes ≥ 10°. The values pass through the URL so the page stays shareable.

No JS? Fill the form by hand. The geolocation button needs JavaScript.